[[{"header":{"parameterUnit":"m.s-1","parameterCategory":2,"la1":30.2991,"la2":30.254,"lo1":-89.0895,"lo2":-89.0444,"dy":0.0017,"dx":0.0017,"nx":28,"ny":28,"refTime":"2024-04-16T03:00:00:Z","depth":"0","parameterNumber":2,"parameterNumberName":"U-component_of_CURRENTS"},"data":[0,0,0,0,0,0,0,0,0,0,0,0,0,0,0,0,0,0,0,0,0,0,0,0,0,0,0,0,0,0,0,0,0,0,0,0,0,0,0,0,0,0,0,0,0,0,0,0,0,0,0,0,0,0,0,0,0,0,0.2302,0.2302,0,0.2324,0.2324,0.2325,0.2357,0.2357,0.2358,0.2358,0.2416,0.2417,0.2418,0,0,0,0,0,0,0,0,0,0,0,0,0,0.2293,0.2293,0.2302,0.2302,0.2303,0.2324,0.2324,0.2325,0.2356,0.2357,0.2358,0.2358,0.2416,0.2417,0.2418,0,0,0,0,0,0,0,0,0,0,0,0,0,0.2304,0.2293,0.2302,0.2321,0.2323,0.2324,0.2324,0.2325,0.2356,0.2357,0.2358,0.2359,0.2415,0.2417,0.2418,0.2412,0,0,0.2423,0.2424,0,0,0,0,0,0,0,0,0.2303,0.2305,0.2318,0.232,0.2322,0.2338,0.2342,0.2356,0.2356,0.2344,0.2358,0.2359,0.2393,0.2396,0.2398,0.2415,0.2417,0.2423,0.2424,0.2425,0.2425,0,0,0,0,0,0,0,0.2303,0.2304,0.2311,0.2318,0.232,0.233,0.2333,0.2345,0.2364,0.2345,0.2347,0.2349,0.2394,0.2397,0.24,0.2418,0.2423,0.2425,0.2426,0.2426,0.2465,0.2465,0,0,0,0,0,0,0.2298,0.2303,0.231,0.2312,0.2314,0.233,0.2332,0.2332,0.2363,0.2369,0.2348,0.2351,0.2393,0.2398,0.2402,0.2447,0.2425,0.2426,0.2427,0.2465,0.2465,0.2465,0,0,0,0,0,0,0.2298,0.2299,0.2309,0.2308,0.231,0.2329,0.2328,0.2332,0.2339,0.2366,0.2372,0.2352,0.2394,0.24,0.2413,0.2448,0.2427,0.2428,0.2465,0.2465,0.2465,0.2505,0,0,0,0,0,0,0.2298,0.2298,0.23,0.2307,0.231,0.2322,0.2328,0.2332,0.2339,0.2342,0.2371,0.2377,0.2395,0.241,0.2414,0.245,0.243,0.2465,0.2465,0.2465,0.2504,0.2506,0.2509,0,0,0,0,0,0.2297,0.2302,0.2299,0.2301,0.231,0.2322,0.2325,0.2341,0.2338,0.2348,0.2356,0.2376,0.2415,0.2411,0.2416,0.2453,0.2465,0.2465,0.2465,0.2502,0.2506,0.2509,0,0,0,0,0,0,0.23,0.2305,0.2303,0.2309,0.2317,0.2328,0.2337,0.2337,0.235,0.2351,0.237,0.2377,0.2405,0.241,0.2405,0.2461,0.2446,0.2447,0.2473,0.2476,0.2479,0.2518,0.2431,0,0,0,0,0,0.2298,0.2304,0.2308,0.2313,0.2316,0.2321,0.2327,0.2334,0.2344,0.235,0.2365,0.2382,0.2408,0.2425,0.2441,0.2465,0.2506,0.2491,0.2494,0.2497,0.253,0.2597,0.261,0.2466,0.2466,0.2466,0,0,0.2299,0.2304,0.2306,0.2314,0.232,0.234,0.2328,0.2338,0.2361,0.2354,0.2384,0.2389,0.2412,0.2447,0.2461,0.2458,0.2558,0.2497,0.2499,0.2532,0.2598,0.2613,0.2626,0.2466,0.2466,0.2466,0,0,0.2318,0.2308,0.2326,0.2334,0.2344,0.2349,0.235,0.2357,0.2368,0.2386,0.2394,0.2423,0.2441,0.2483,0.2503,0.2528,0.2565,0.2519,0.2577,0.264,0.2654,0.2666,0.2741,0.2759,0.2526,0.2526,0.2526,0,0.2319,0.2341,0.2333,0.2356,0.2366,0.2355,0.2379,0.2391,0.2402,0.2418,0.2403,0.2456,0.2476,0.2543,0.2559,0.2544,0.2578,0.2565,0.2648,0.2661,0.2673,0.2746,0.2767,0.2528,0.2528,0.2528,0.2528,0,0.2359,0.2375,0.2385,0.2411,0.242,0.2434,0.2445,0.2456,0.2456,0.2473,0.2517,0.2535,0.258,0.2582,0.2586,0.2676,0.2673,0.2641,0.2648,0.2691,0.2764,0.2785,0.2531,0.253,0.253,0.2529,0,0,0.2355,0.2404,0.2405,0.2425,0.2445,0.2454,0.2491,0.2524,0.2553,0.2569,0.2624,0.2669,0.2677,0.27,0.2703,0.2759,0.2878,0.2742,0.2744,0.2833,0.303,0.287,0.2877,0.2852,0.2855,0.2858,0.3049,0,0.2384,0.2442,0.2454,0.2497,0.2522,0.2524,0.2558,0.2586,0.2606,0.2655,0.2691,0.2739,0.2722,0.2744,0.2804,0.2862,0.2932,0.283,0.2962,0.2967,0.2833,0.2895,0.2651,0.2786,0.3069,0.3072,0.3075,0,0.2416,0.2448,0.2504,0.254,0.2548,0.2572,0.2611,0.2641,0.2708,0.2728,0.2788,0.2811,0.2923,0.2877,0.3039,0.297,0.302,0.3052,0.3059,0.2917,0.2844,0.2786,0.2812,0.2699,0.3107,0.3104,0.3102,0,0.2422,0.2475,0.2519,0.2533,0.2579,0.2597,0.2615,0.2665,0.2694,0.2784,0.2821,0.293,0.2986,0.308,0.3148,0.3112,0.3304,0.3262,0.3171,0.3162,0.2987,0.2953,0.2933,0.3383,0.3382,0.3382,0.3381,0,0.2448,0.2477,0.2523,0.2545,0.2578,0.2604,0.2645,0.2678,0.2742,0.2791,0.2862,0.2921,0.3035,0.3136,0.3204,0.3252,0.336,0.3214,0.3204,0.2988,0.2954,0.287,0.285,0.3389,0.3387,0.3386,0.3385,0,0.2451,0.2492,0.2532,0.2576,0.2587,0.2606,0.2644,0.2675,0.2737,0.2809,0.2845,0.2956,0.3082,0.3178,0.3333,0.3296,0.3249,0.3356,0.3094,0.3045,0.2798,0.2789,0.2727,0.2659,0.3307,0.3305,0.3302,0,0.2468,0.249,0.2536,0.2555,0.2573,0.2603,0.2622,0.2669,0.27,0.2819,0.2856,0.2987,0.3056,0.3208,0.3181,0.3262,0.3184,0.3041,0.2913,0.2772,0.2759,0.2676,0.262,0.2725,0.2718,0.2713,0.2708,0,0.2481,0.2492,0.2528,0.2558,0.258,0.2585,0.2613,0.2636,0.27,0.2753,0.2837,0.2906,0.2995,0.2934,0.2964,0.2961,0.2818,0.2922,0.2854,0.2368,0.2206,0.2136,0.2639,0.2658,0.2663,0.2667,0.2669,0.2672,0.2487,0.2498,0.2539,0.2553,0.2572,0.2554,0.2525,0.256,0.2583,0.2617,0.2756,0.2776,0.2692,0.2685,0.2668,0.2382,0.2505,0.2238,0.2272,0.2229,0.2036,0.2418,0.2352,0.2355,0.2357,0.236,0.2362,0,0.2479,0.2497,0.2525,0.2527,0.2507,0.2519,0.2503,0.2447,0.2425,0.2493,0.2539,0.2411,0.2274,0.2189,0.1899,0.1747,0.1678,0.167,0.1519,0.1527,0.1927,0.1765,0.1468,0.1469,0.1469,0.1469,0.1469,0.1469,0.2485,0.2506,0.2503,0.2459,0.2442,0.2341,0.23,0.2232,0.2225,0.2123,0.2033,0.2048,0.1883,0.1585,0.1316,0.1267,0.1193,0.1053,0.1193,0.1462,0.1518,0.1571,0.1411,0.1045,0.1045,0.0642,0.0639,0.0636]},{"header":{"parameterUnit":"m.s-1","parameterCategory":2,"la1":30.2991,"la2":30.254,"lo1":-89.0895,"lo2":-89.0444,"dy":0.0017,"dx":0.0017,"nx":28,"ny":28,"refTime":"2024-04-16T03:00:00:Z","depth":"0","parameterNumber":3,"parameterNumberName":"V-component_of_CURRENTS"},"data":[0,0,0,0,0,0,0,0,0,0,0,0,0,0,0,0,0,0,0,0,0,0,0,0,0,0,0,0,0,0,0,0,0,0,0,0,0,0,0,0,0,0,0,0,0,0,0,0,0,0,0,0,0,0,0,0,0,0,-0.0044,-0.0045,0,-0.0122,-0.0123,-0.0124,-0.0178,-0.0178,-0.0178,-0.0178,-0.0205,-0.0206,-0.0207,0,0,0,0,0,0,0,0,0,0,0,0,0,0.0026,0.0025,-0.0044,-0.0045,-0.0045,-0.0122,-0.0123,-0.0125,-0.0178,-0.0178,-0.0178,-0.0178,-0.0205,-0.0206,-0.0207,0,0,0,0,0,0,0,0,0,0,0,0,0,-0.0027,0.0025,-0.0044,-0.0078,-0.0081,-0.0121,-0.0123,-0.0125,-0.0178,-0.0178,-0.0178,-0.0178,-0.0205,-0.0206,-0.0207,-0.0214,0,0,-0.021,-0.0211,0,0,0,0,0,0,0,0,-0.0024,-0.003,-0.0072,-0.0075,-0.0079,-0.0136,-0.0108,-0.0151,-0.0178,-0.0146,-0.0178,-0.0178,-0.0175,-0.0178,-0.02,-0.0215,-0.0216,-0.0211,-0.0211,-0.0212,-0.0212,0,0,0,0,0,0,0,-0.002,-0.0027,-0.0079,-0.0073,-0.0077,-0.01,-0.0108,-0.0117,-0.0162,-0.0149,-0.0152,-0.0153,-0.0177,-0.0199,-0.0201,-0.0217,-0.021,-0.0211,-0.0212,-0.0213,-0.0144,-0.0141,0,0,0,0,0,0,-0.0,-0.0024,-0.0077,-0.0081,-0.0046,-0.0101,-0.011,-0.0122,-0.0163,-0.0168,-0.0153,-0.0155,-0.0197,-0.0199,-0.0202,-0.0138,-0.0212,-0.0213,-0.0213,-0.0146,-0.0143,-0.0141,0,0,0,0,0,0,0.0001,-0.0005,-0.0073,-0.005,-0.006,-0.0101,-0.0115,-0.0123,-0.0138,-0.0166,-0.0172,-0.0158,-0.0197,-0.02,-0.0197,-0.0142,-0.0213,-0.0214,-0.0149,-0.0145,-0.0142,-0.0057,0,0,0,0,0,0,0.0003,-0.0004,-0.0007,-0.0049,-0.006,-0.0087,-0.0115,-0.0124,-0.0137,-0.0141,-0.0171,-0.0175,-0.0197,-0.0196,-0.0198,-0.0145,-0.0215,-0.0152,-0.0147,-0.0143,-0.0063,-0.005,-0.004,0,0,0,0,0,0.0006,0.0006,-0.0007,-0.0013,-0.0063,-0.0086,-0.0094,-0.0126,-0.0137,-0.0141,-0.0156,-0.0174,-0.0166,-0.0196,-0.0199,-0.0144,-0.0155,-0.0149,-0.0143,-0.0068,-0.0053,-0.004,0,0,0,0,0,0,0.0033,-0.0,-0.0015,-0.0027,-0.0049,-0.0093,-0.0097,-0.0118,-0.0137,-0.0135,-0.0165,-0.0169,-0.0138,-0.0154,-0.0185,-0.0106,-0.0154,-0.0149,-0.0094,-0.0081,-0.007,-0.0016,-0.0216,0,0,0,0,0,0.004,0.0031,-0.0003,-0.001,-0.0017,-0.0055,-0.0068,-0.0088,-0.0109,-0.0119,-0.0137,-0.0137,-0.0119,-0.0113,-0.0113,-0.0086,-0.0087,-0.0043,-0.0032,-0.0022,0.0022,0.005,0.0068,-0.0122,-0.0122,-0.0122,0,0,0.005,0.0031,0.0026,-0.0004,-0.0024,-0.0022,-0.0064,-0.0074,-0.0058,-0.0115,-0.0098,-0.0107,-0.0104,-0.0068,-0.0052,-0.0074,0.0027,-0.0015,-0.0007,0.0033,0.0058,0.0076,0.0092,-0.0118,-0.0119,-0.012,0,0,0.0071,0.005,0.0051,0.004,0.0019,0.0004,0.0008,-0.0026,-0.0026,-0.0018,-0.0033,0.0001,-0.001,0.0026,0.0041,0.012,0.0082,0.0113,0.0215,0.024,0.0256,0.027,0.0271,0.0284,0.0122,0.0122,0.0122,0,0.0085,0.0079,0.005,0.0053,0.006,0.0026,0.0043,0.004,0.0014,0.0051,0.0004,0.0071,0.0054,0.0158,0.0179,0.0151,0.0137,0.0156,0.0255,0.0269,0.0282,0.0279,0.0293,0.0127,0.0126,0.0126,0.0126,0,0.0105,0.0106,0.0111,0.011,0.0117,0.0123,0.0125,0.0145,0.0144,0.0155,0.0238,0.0222,0.0279,0.0276,0.0244,0.0351,0.03,0.0257,0.0217,0.0306,0.0297,0.031,0.0134,0.0132,0.0131,0.013,0,0,0.0123,0.0124,0.0127,0.0149,0.0149,0.0164,0.0219,0.0273,0.035,0.0341,0.045,0.0476,0.0484,0.0505,0.0485,0.0505,0.0557,0.0419,0.0418,0.0416,0.0588,0.0537,0.0544,0.051,0.0513,0.0516,0.0537,0,0.0148,0.0171,0.0174,0.0227,0.0245,0.0265,0.0333,0.039,0.0433,0.0527,0.0568,0.0643,0.0568,0.0603,0.062,0.0579,0.0598,0.0555,0.0509,0.0509,0.0449,0.0562,0.0572,0.0591,0.0549,0.0551,0.0552,0,0.0168,0.0185,0.0227,0.0308,0.0325,0.0365,0.0498,0.0553,0.0683,0.0726,0.0822,0.0838,0.0917,0.0816,0.0825,0.0788,0.0713,0.0662,0.066,0.0604,0.0484,0.0501,0.0615,0.0551,0.0572,0.057,0.0569,0,0.019,0.0236,0.0278,0.0293,0.0369,0.0432,0.0495,0.0621,0.0714,0.0862,0.0945,0.1028,0.1067,0.1023,0.0913,0.0869,0.0888,0.0812,0.0707,0.0699,0.0704,0.0693,0.0757,0.0831,0.0831,0.0831,0.0831,0,0.0211,0.025,0.0294,0.0315,0.0433,0.0473,0.0628,0.0711,0.086,0.1,0.1049,0.116,0.1111,0.1108,0.0996,0.0902,0.0955,0.0773,0.0727,0.073,0.0721,0.0658,0.0614,0.0832,0.0832,0.0832,0.0832,0,0.0224,0.0235,0.0305,0.0393,0.0436,0.0526,0.0695,0.0817,0.0928,0.1114,0.1166,0.1266,0.1264,0.1195,0.1119,0.1001,0.0883,0.0856,0.0851,0.0806,0.0646,0.0605,0.0652,0.0629,0.078,0.0779,0.0778,0,0.0231,0.0252,0.0361,0.0435,0.0478,0.061,0.0721,0.0849,0.0974,0.1174,0.1269,0.1332,0.1401,0.1288,0.112,0.0973,0.0874,0.0838,0.0776,0.0691,0.0612,0.0588,0.0563,0.0803,0.0803,0.0803,0.0802,0,0.027,0.03,0.0372,0.0499,0.0613,0.0746,0.0894,0.0996,0.1155,0.129,0.1442,0.1511,0.1442,0.1327,0.1119,0.0996,0.0818,0.0824,0.0763,0.0689,0.0647,0.0582,0.0707,0.08,0.08,0.08,0.08,0.08,0.0326,0.0393,0.0482,0.0604,0.0724,0.0859,0.0966,0.1114,0.1285,0.1476,0.1533,0.165,0.148,0.1229,0.1069,0.0782,0.0792,0.0678,0.0649,0.0642,0.0604,0.0712,0.0726,0.0725,0.0725,0.0725,0.0725,0,0.0414,0.0477,0.0589,0.0727,0.0828,0.0883,0.107,0.1162,0.1325,0.1525,0.1643,0.1636,0.1441,0.1202,0.0823,0.0644,0.059,0.0547,0.0541,0.0531,0.066,0.0643,0.0607,0.0607,0.0607,0.0607,0.0607,0.0607,0.0476,0.0584,0.0619,0.0775,0.086,0.0987,0.1079,0.1214,0.1367,0.1542,0.1635,0.1702,0.1505,0.0951,0.06,0.0525,0.0429,0.0401,0.0351,0.0442,0.0453,0.0463,0.0439,0.0361,0.036,0.0254,0.0252,0.0251]}],[{"header":{"parameterUnit":"m.s-1","parameterCategory":2,"la1":30.2991,"la2":30.254,"lo1":-89.0895,"lo2":-89.0444,"dy":0.0017,"dx":0.0017,"nx":28,"ny":28,"refTime":"2024-04-16T03:00:00:Z","depth":"2","parameterNumber":2,"parameterNumberName":"U-component_of_CURRENTS"},"data":[0,0,0,0,0,0,0,0,0,0,0,0,0,0,0,0,0,0,0,0,0,0,0,0,0,0,0,0,0,0,0,0,0,0,0,0,0,0,0,0,0,0,0,0,0,0,0,0,0,0,0,0,0,0,0,0,0,0,0.1686,0.1687,0,0.1777,0.1778,0.1779,0.1818,0.1818,0.1819,0.1819,0.1965,0.1969,0.1972,0,0,0,0,0,0,0,0,0,0,0,0,0,0.1672,0.1671,0.1686,0.1687,0.1689,0.1777,0.1778,0.1779,0.1818,0.1818,0.1819,0.1819,0.1964,0.1968,0.1973,0,0,0,0,0,0,0,0,0,0,0,0,0,0.1708,0.1671,0.1685,0.1722,0.1726,0.1777,0.1778,0.1779,0.1818,0.1818,0.1819,0.1819,0.1962,0.1968,0.1973,0.2002,0,0,0.199,0.1993,0,0,0,0,0,0,0,0,0.1706,0.1708,0.1715,0.1719,0.1724,0.179,0.1827,0.1858,0.1818,0.1779,0.1819,0.1819,0.1914,0.1923,0.1934,0.2008,0.2015,0.1991,0.1994,0.1997,0.1998,0,0,0,0,0,0,0,0.1703,0.1705,0.1718,0.1717,0.1722,0.1778,0.1781,0.1833,0.1842,0.1783,0.1787,0.1803,0.1916,0.1928,0.1938,0.2017,0.1991,0.1996,0.1999,0.2001,0.223,0.2232,0,0,0,0,0,0,0.1692,0.1702,0.1715,0.1721,0.172,0.1777,0.1781,0.1765,0.184,0.1852,0.1802,0.1804,0.1918,0.1931,0.1943,0.2088,0.1996,0.2002,0.2005,0.2227,0.223,0.2233,0,0,0,0,0,0,0.1691,0.1691,0.1712,0.1719,0.1726,0.1776,0.1759,0.1767,0.1793,0.1855,0.1868,0.1822,0.1919,0.1935,0.2024,0.209,0.2004,0.2009,0.2224,0.2228,0.2232,0.2311,0,0,0,0,0,0,0.169,0.1689,0.1689,0.1717,0.1725,0.1766,0.1759,0.1769,0.1804,0.1807,0.1876,0.1889,0.1921,0.2016,0.2029,0.2096,0.2014,0.222,0.2226,0.2231,0.2305,0.2317,0.2328,0,0,0,0,0,0.1688,0.1686,0.1687,0.1691,0.1716,0.1769,0.1779,0.1814,0.1804,0.1833,0.1883,0.1887,0.2058,0.2022,0.2038,0.2108,0.2218,0.2224,0.223,0.23,0.2315,0.2327,0,0,0,0,0,0,0.1695,0.1691,0.1693,0.1693,0.1739,0.1777,0.1805,0.1819,0.1875,0.1882,0.1921,0.194,0.2043,0.2061,0.202,0.2189,0.214,0.2149,0.2187,0.2202,0.2213,0.2217,0.2018,0,0,0,0,0,0.169,0.1677,0.1707,0.1714,0.173,0.1765,0.1792,0.1818,0.1866,0.1889,0.1941,0.2002,0.2078,0.2125,0.2186,0.2276,0.2278,0.2332,0.2343,0.2353,0.2368,0.2404,0.242,0.2254,0.2254,0.2254,0,0,0.17,0.1695,0.1693,0.1715,0.1742,0.1792,0.1781,0.183,0.189,0.1899,0.1995,0.2042,0.2109,0.2218,0.2266,0.2244,0.2407,0.236,0.2368,0.2378,0.2412,0.2428,0.2442,0.2258,0.2257,0.2256,0,0,0.1718,0.1702,0.1705,0.1744,0.1791,0.1821,0.1836,0.1889,0.193,0.2023,0.2053,0.2142,0.2241,0.2318,0.2363,0.2473,0.246,0.249,0.2563,0.2599,0.2612,0.2624,0.2664,0.2679,0.2502,0.2502,0.2502,0,0.1733,0.1733,0.1728,0.176,0.1803,0.1833,0.1885,0.1938,0.2024,0.2076,0.2068,0.224,0.2297,0.244,0.2491,0.2503,0.2509,0.2503,0.2612,0.2624,0.2634,0.2672,0.2687,0.2506,0.2506,0.2505,0.2505,0,0.1767,0.1782,0.1794,0.1833,0.1884,0.1933,0.2004,0.2067,0.2109,0.2171,0.2307,0.2381,0.2487,0.2525,0.255,0.2674,0.265,0.2613,0.257,0.2656,0.269,0.2705,0.2513,0.2511,0.251,0.2509,0,0,0.1748,0.1803,0.1806,0.185,0.1925,0.1976,0.2072,0.2179,0.2261,0.2346,0.2454,0.2596,0.2626,0.268,0.2721,0.2767,0.2865,0.2731,0.2731,0.276,0.2945,0.2734,0.2729,0.2831,0.2834,0.2836,0.2943,0,0.1777,0.1839,0.1864,0.1964,0.2012,0.2077,0.2172,0.2281,0.2368,0.2486,0.2572,0.2695,0.2688,0.2754,0.2802,0.2856,0.2903,0.2839,0.2868,0.2869,0.2662,0.2739,0.2489,0.2545,0.2957,0.2959,0.2961,0,0.1797,0.1839,0.1924,0.2034,0.2062,0.2144,0.2295,0.2388,0.2548,0.2616,0.2731,0.2792,0.293,0.2877,0.3001,0.2954,0.2966,0.2979,0.2982,0.2765,0.2683,0.2525,0.2554,0.2984,0.2982,0.2981,0.2979,0,0.1797,0.188,0.1949,0.1991,0.2124,0.2197,0.2283,0.244,0.2538,0.2711,0.2786,0.2925,0.3006,0.3044,0.3076,0.3053,0.3156,0.3125,0.2948,0.2935,0.2718,0.2678,0.319,0.3189,0.3189,0.3189,0.3189,0,0.1819,0.1891,0.1961,0.2023,0.2142,0.2222,0.238,0.2483,0.2632,0.2751,0.2858,0.2954,0.3043,0.3103,0.3115,0.3065,0.319,0.2977,0.2947,0.2737,0.27,0.3067,0.3052,0.3193,0.3192,0.3191,0.319,0,0.185,0.1887,0.1989,0.2109,0.2157,0.2256,0.2433,0.2537,0.2664,0.2813,0.2868,0.3011,0.3058,0.3097,0.3168,0.3095,0.3086,0.3029,0.2772,0.2705,0.2844,0.2832,0.2875,0.2869,0.2863,0.2858,0.2854,0,0.1874,0.1918,0.2046,0.2112,0.2186,0.2325,0.2421,0.2561,0.2652,0.2832,0.2887,0.298,0.2968,0.2971,0.2877,0.2815,0.2954,0.2567,0.2463,0.2845,0.2813,0.2809,0.2805,0.2245,0.2236,0.2229,0.2223,0,0.1935,0.1976,0.2066,0.218,0.2284,0.2383,0.2514,0.257,0.2707,0.2771,0.2829,0.2818,0.2758,0.2543,0.2434,0.2387,0.2549,0.2414,0.2915,0.2318,0.2245,0.2215,0.2233,0.2161,0.2167,0.2172,0.2175,0.2178,0.1988,0.205,0.2144,0.2263,0.2357,0.2417,0.2454,0.2489,0.2544,0.2511,0.2618,0.2445,0.239,0.2029,0.195,0.1904,0.208,0.2014,0.2039,0.2071,0.1934,0.185,0.1669,0.1672,0.1675,0.1678,0.168,0,0.2038,0.2122,0.2218,0.2328,0.2383,0.2442,0.2492,0.2416,0.2339,0.2244,0.2147,0.1832,0.1606,0.1594,0.1379,0.1332,0.1372,0.1316,0.1373,0.1432,0.1486,0.1324,0.0896,0.0894,0.0892,0.089,0,0,0.2092,0.2191,0.2231,0.2319,0.2378,0.2375,0.2363,0.2174,0.204,0.1732,0.1542,0.1474,0.1495,0.1167,0.1108,0.0977,0.1215,0.0933,0.1555,0.168,0.1733,0.1866,0.1677,0,0,0,0,0]},{"header":{"parameterUnit":"m.s-1","parameterCategory":2,"la1":30.2991,"la2":30.254,"lo1":-89.0895,"lo2":-89.0444,"dy":0.0017,"dx":0.0017,"nx":28,"ny":28,"refTime":"2024-04-16T03:00:00:Z","depth":"2","parameterNumber":3,"parameterNumberName":"V-component_of_CURRENTS"},"data":[0,0,0,0,0,0,0,0,0,0,0,0,0,0,0,0,0,0,0,0,0,0,0,0,0,0,0,0,0,0,0,0,0,0,0,0,0,0,0,0,0,0,0,0,0,0,0,0,0,0,0,0,0,0,0,0,0,0,-0.0073,-0.0074,0,-0.0142,-0.0143,-0.0144,-0.0182,-0.0182,-0.0182,-0.0182,-0.0284,-0.0286,-0.0289,0,0,0,0,0,0,0,0,0,0,0,0,0,-0.0034,-0.0034,-0.0073,-0.0074,-0.0074,-0.0142,-0.0143,-0.0144,-0.0182,-0.0182,-0.0182,-0.0182,-0.0283,-0.0286,-0.0289,0,0,0,0,0,0,0,0,0,0,0,0,0,-0.0074,-0.0034,-0.0073,-0.0099,-0.0102,-0.0142,-0.0143,-0.0145,-0.0182,-0.0182,-0.0182,-0.0182,-0.0282,-0.0286,-0.029,-0.032,0,0,-0.0303,-0.0305,0,0,0,0,0,0,0,0,-0.0071,-0.0076,-0.0095,-0.0098,-0.0101,-0.0151,-0.0166,-0.0204,-0.0182,-0.0155,-0.0182,-0.0182,-0.0241,-0.0248,-0.0265,-0.0325,-0.0329,-0.0303,-0.0306,-0.0308,-0.0309,0,0,0,0,0,0,0,-0.0069,-0.0073,-0.0103,-0.0096,-0.0099,-0.0128,-0.0133,-0.0174,-0.0201,-0.0157,-0.0159,-0.0163,-0.0243,-0.0261,-0.0268,-0.0331,-0.0303,-0.0307,-0.031,-0.0311,-0.0345,-0.0343,0,0,0,0,0,0,-0.0052,-0.007,-0.0101,-0.0105,-0.0082,-0.0128,-0.0134,-0.0137,-0.02,-0.0208,-0.0163,-0.0164,-0.0254,-0.0263,-0.0271,-0.0255,-0.0308,-0.0312,-0.0314,-0.0346,-0.0344,-0.0343,0,0,0,0,0,0,-0.0051,-0.0054,-0.0098,-0.0087,-0.0094,-0.0129,-0.0132,-0.0139,-0.0159,-0.0203,-0.0213,-0.0176,-0.0254,-0.0266,-0.0314,-0.0261,-0.0314,-0.0317,-0.0348,-0.0346,-0.0344,-0.0258,0,0,0,0,0,0,-0.0049,-0.0053,-0.0057,-0.0086,-0.0094,-0.0133,-0.0132,-0.014,-0.016,-0.0163,-0.0218,-0.0227,-0.0255,-0.0307,-0.0318,-0.0268,-0.0321,-0.0351,-0.0347,-0.0344,-0.0263,-0.0253,-0.0244,0,0,0,0,0,-0.0048,-0.0054,-0.0056,-0.006,-0.0095,-0.0134,-0.0142,-0.0167,-0.016,-0.0182,-0.0211,-0.0225,-0.0293,-0.0312,-0.0324,-0.0273,-0.0352,-0.0348,-0.0345,-0.0267,-0.0255,-0.0244,0,0,0,0,0,0,-0.0045,-0.0059,-0.0062,-0.0074,-0.0105,-0.0139,-0.0154,-0.0167,-0.0206,-0.0201,-0.0239,-0.0252,-0.0263,-0.0289,-0.0308,-0.027,-0.031,-0.0309,-0.0246,-0.0236,-0.0226,-0.0172,-0.0324,0,0,0,0,0,-0.0042,-0.0048,-0.0073,-0.0085,-0.0093,-0.0121,-0.0139,-0.0154,-0.0187,-0.0203,-0.024,-0.0256,-0.0256,-0.0267,-0.0292,-0.0297,-0.0305,-0.026,-0.0251,-0.0243,-0.0204,-0.019,-0.0176,-0.033,-0.033,-0.0331,0,0,-0.0045,-0.0053,-0.0058,-0.0085,-0.0102,-0.0117,-0.0132,-0.0156,-0.0162,-0.0208,-0.0234,-0.0244,-0.0254,-0.0248,-0.025,-0.0265,-0.0207,-0.0238,-0.0231,-0.0196,-0.0185,-0.017,-0.0156,-0.0328,-0.0328,-0.0329,0,0,-0.005,-0.0056,-0.0061,-0.008,-0.0103,-0.012,-0.0124,-0.0159,-0.0167,-0.0201,-0.02,-0.0171,-0.0232,-0.0186,-0.0176,-0.0129,-0.0166,-0.0142,-0.0045,-0.0032,-0.0019,-0.0008,-0.0017,-0.0006,-0.0127,-0.0127,-0.0127,0,-0.005,-0.0059,-0.0074,-0.0082,-0.0088,-0.0115,-0.012,-0.0136,-0.0185,-0.016,-0.0203,-0.0153,-0.018,-0.0079,-0.0061,-0.01,-0.0125,-0.009,-0.0019,-0.0008,0.0003,-0.0009,0.0001,-0.0123,-0.0123,-0.0124,-0.0124,0,-0.0058,-0.0065,-0.0069,-0.0078,-0.0091,-0.0106,-0.0116,-0.0124,-0.0132,-0.0122,-0.0055,-0.006,-0.0005,-0.0002,-0.0029,0.0073,0.0019,-0.002,-0.0047,0.0024,0.0006,0.0015,-0.0116,-0.0118,-0.0119,-0.012,0,0,-0.005,-0.007,-0.007,-0.0071,-0.0086,-0.0098,-0.0084,-0.0062,-0.0006,-0.0019,0.0078,0.0111,0.0157,0.0177,0.019,0.0211,0.0246,0.0127,0.0125,0.0121,0.0246,0.0196,0.02,0.0197,0.02,0.0202,0.0196,0,-0.0051,-0.0067,-0.0066,-0.0072,-0.008,-0.0072,-0.0048,-0.0019,0.0013,0.0089,0.0173,0.0253,0.0213,0.0273,0.0294,0.0262,0.0276,0.025,0.0178,0.0177,0.0127,0.0213,0.0226,0.0222,0.0205,0.0206,0.0207,0,-0.0054,-0.0066,-0.0076,-0.0053,-0.0047,-0.0043,0.003,0.0055,0.0175,0.0222,0.0352,0.0402,0.0513,0.044,0.0459,0.043,0.0356,0.0313,0.031,0.0252,0.0146,0.0153,0.0238,0.0222,0.022,0.0219,0.0218,0,-0.0063,-0.0061,-0.007,-0.0073,-0.0056,-0.0028,0.0005,0.0102,0.0187,0.0341,0.0441,0.0552,0.0639,0.0585,0.0511,0.0474,0.0482,0.0416,0.0315,0.0308,0.0308,0.0298,0.0421,0.0421,0.0421,0.0421,0.0421,0,-0.0073,-0.008,-0.0074,-0.009,-0.004,-0.0019,0.0088,0.0143,0.0305,0.0459,0.0533,0.0682,0.0669,0.068,0.0566,0.0482,0.0526,0.0369,0.0325,0.0334,0.0326,0.0315,0.0303,0.0421,0.0421,0.0421,0.0421,0,-0.0099,-0.0107,-0.0108,-0.0081,-0.0056,-0.0018,0.0134,0.0242,0.0365,0.0576,0.0647,0.0793,0.0804,0.075,0.0675,0.057,0.0475,0.0419,0.0425,0.0382,0.0274,0.0266,0.0331,0.0329,0.0328,0.0327,0.0327,0,-0.0122,-0.0134,-0.0102,-0.006,-0.0047,0.0038,0.0132,0.0263,0.0402,0.0649,0.0764,0.0861,0.095,0.0831,0.0667,0.0498,0.0464,0.0383,0.0335,0.0325,0.0275,0.0269,0.0263,0.0356,0.0356,0.0355,0.0355,0,-0.0146,-0.0136,-0.0123,-0.0042,0.0038,0.0151,0.0288,0.0399,0.0594,0.0767,0.0975,0.106,0.0991,0.0869,0.0641,0.0515,0.0414,0.0366,0.0394,0.0367,0.0347,0.0297,0.0292,0.0352,0.0352,0.0352,0.0353,0.0353,-0.0136,-0.0116,-0.0073,0.0009,0.0113,0.0257,0.0376,0.0551,0.0759,0.1017,0.1063,0.1163,0.1045,0.0752,0.0572,0.0371,0.0376,0.0293,0.0296,0.0299,0.0293,0.0272,0.0261,0.026,0.026,0.026,0.026,0,-0.0092,-0.0067,0.0,0.0102,0.0225,0.029,0.0497,0.0646,0.0889,0.104,0.1198,0.1061,0.0928,0.0752,0.0456,0.029,0.0284,0.0229,0.0269,0.0274,0.0278,0.0271,0.0232,0.0232,0.0231,0.023,0,0,-0.0064,-0.0009,0.0017,0.0185,0.0291,0.049,0.0622,0.0828,0.0962,0.1126,0.1159,0.1171,0.0966,0.0739,0.0542,0.0384,0.0358,0.0345,0.0387,0.0463,0.0469,0.0336,0.0334,0,0,0,0,0]}],[{"header":{"parameterUnit":"m.s-1","parameterCategory":2,"la1":30.2991,"la2":30.254,"lo1":-89.0895,"lo2":-89.0444,"dy":0.0017,"dx":0.0017,"nx":28,"ny":28,"refTime":"2024-04-16T03:00:00:Z","depth":"4","parameterNumber":2,"parameterNumberName":"U-component_of_CURRENTS"},"data":[0,0,0,0,0,0,0,0,0,0,0,0,0,0,0,0,0,0,0,0,0,0,0,0,0,0,0,0,0,0,0,0,0,0,0,0,0,0,0,0,0,0,0,0,0,0,0,0,0,0,0,0,0,0,0,0,0,0,0.0722,0.0722,0,0.0628,0.0626,0.0624,0.0626,0.0628,0.063,0.0632,0.0643,0.0641,0.064,0,0,0,0,0,0,0,0,0,0,0,0,0,0.0774,0.0773,0.0722,0.0722,0.0721,0.0628,0.0626,0.0624,0.0626,0.0628,0.0631,0.0633,0.0643,0.0641,0.0639,0,0,0,0,0,0,0,0,0,0,0,0,0,0.0716,0.0773,0.0722,0.0717,0.0716,0.0628,0.0626,0.0623,0.0625,0.0628,0.0631,0.0634,0.0644,0.0642,0.0639,0.0564,0,0,0.0632,0.0631,0,0,0,0,0,0,0,0,0.0719,0.0713,0.0718,0.0717,0.0716,0.0649,0.0649,0.0611,0.0625,0.0651,0.0632,0.0636,0.0658,0.0654,0.0617,0.0564,0.0565,0.0632,0.063,0.0629,0.0628,0,0,0,0,0,0,0,0.0723,0.0716,0.0677,0.0718,0.0716,0.0676,0.0671,0.064,0.0634,0.0649,0.0651,0.0652,0.0657,0.0619,0.0617,0.0565,0.0632,0.063,0.0628,0.0627,0.0696,0.0699,0,0,0,0,0,0,0.0754,0.072,0.068,0.0675,0.0734,0.0673,0.0667,0.0661,0.0632,0.0632,0.065,0.0653,0.0621,0.062,0.0618,0.0682,0.0629,0.0627,0.0626,0.0693,0.0697,0.07,0,0,0,0,0,0,0.0755,0.0751,0.0684,0.0702,0.0692,0.0671,0.0662,0.0658,0.0667,0.0633,0.0635,0.0672,0.0624,0.0622,0.0638,0.0677,0.0626,0.0624,0.0689,0.0694,0.0698,0.0711,0,0,0,0,0,0,0.0757,0.0752,0.0758,0.0704,0.0693,0.0656,0.066,0.0654,0.0665,0.0669,0.0651,0.0652,0.0626,0.0642,0.0636,0.0673,0.0622,0.0685,0.0691,0.0697,0.0706,0.0715,0.0723,0,0,0,0,0,0.0759,0.0755,0.0758,0.0754,0.0701,0.0657,0.0646,0.0635,0.0664,0.0657,0.0667,0.0655,0.0679,0.064,0.0633,0.067,0.0682,0.0689,0.0696,0.0702,0.0714,0.0723,0,0,0,0,0,0,0.0782,0.0754,0.0756,0.0746,0.0719,0.0661,0.0652,0.0657,0.0651,0.0669,0.0657,0.0657,0.0694,0.069,0.0648,0.0722,0.0694,0.07,0.0702,0.0712,0.072,0.0821,0.062,0,0,0,0,0,0.079,0.078,0.0749,0.0741,0.0731,0.0701,0.0688,0.0681,0.0669,0.067,0.065,0.067,0.0706,0.0717,0.0717,0.0727,0.0748,0.0768,0.0776,0.0783,0.0868,0.0908,0.0926,0.0724,0.0724,0.0724,0,0,0.0794,0.0781,0.0775,0.0746,0.072,0.0692,0.0699,0.0683,0.0679,0.0671,0.0656,0.0681,0.0718,0.0739,0.076,0.0745,0.084,0.0792,0.0797,0.0881,0.0917,0.0937,0.0954,0.0729,0.0728,0.0728,0,0,0.078,0.0788,0.0766,0.0745,0.0723,0.0705,0.0719,0.0671,0.0677,0.0683,0.0695,0.075,0.0761,0.0785,0.0817,0.088,0.088,0.0901,0.1017,0.1051,0.1067,0.1083,0.1069,0.1083,0.0907,0.0907,0.0907,0,0.0792,0.0754,0.0753,0.0723,0.0709,0.0723,0.0694,0.0694,0.066,0.0677,0.0702,0.081,0.0796,0.0898,0.0942,0.0896,0.0924,0.0953,0.1059,0.1075,0.109,0.1073,0.1089,0.0908,0.0908,0.0908,0.0908,0,0.0745,0.0723,0.0709,0.0681,0.0672,0.0647,0.0654,0.0658,0.07,0.0709,0.0823,0.0862,0.0941,0.0956,0.0983,0.1107,0.1089,0.1049,0.1019,0.1111,0.1087,0.1102,0.091,0.091,0.0909,0.0909,0,0,0.0744,0.0685,0.0682,0.0661,0.0647,0.0633,0.0652,0.0667,0.0717,0.0778,0.0871,0.0987,0.1056,0.1109,0.1147,0.1235,0.1311,0.1232,0.1233,0.1199,0.139,0.1213,0.1212,0.1301,0.1306,0.131,0.1302,0,0.0704,0.0635,0.0628,0.0589,0.0553,0.0584,0.0607,0.0642,0.0708,0.0787,0.094,0.1049,0.1098,0.1189,0.1278,0.1308,0.1371,0.1318,0.1332,0.1333,0.1147,0.1232,0.1324,0.1314,0.1318,0.132,0.1322,0,0.0647,0.0613,0.0549,0.0542,0.0538,0.0549,0.0615,0.0639,0.0766,0.0849,0.1024,0.1117,0.1292,0.1327,0.1472,0.145,0.1461,0.1495,0.1491,0.1363,0.119,0.1227,0.1351,0.1348,0.1346,0.1344,0.1343,0,0.0602,0.0563,0.0515,0.0501,0.05,0.0529,0.0575,0.0664,0.0718,0.0922,0.1008,0.1211,0.133,0.1439,0.149,0.1503,0.1629,0.1581,0.1438,0.1421,0.157,0.1555,0.1706,0.1706,0.1706,0.1706,0.1706,0,0.0521,0.0485,0.0509,0.0469,0.0498,0.0526,0.0602,0.0677,0.0822,0.0907,0.1063,0.1192,0.1389,0.1454,0.1511,0.1508,0.1599,0.1515,0.1438,0.1564,0.155,0.1575,0.156,0.1706,0.1706,0.1706,0.1706,0,0.0418,0.0415,0.038,0.0418,0.0454,0.0487,0.0616,0.0672,0.0817,0.0947,0.103,0.1194,0.1285,0.138,0.1509,0.1475,0.1511,0.1475,0.1588,0.1507,0.1281,0.1267,0.134,0.1334,0.133,0.1326,0.1322,0,0.0335,0.0293,0.0351,0.0374,0.0394,0.0478,0.0534,0.0682,0.0754,0.0933,0.0986,0.1114,0.1209,0.1236,0.1344,0.138,0.1378,0.1361,0.1405,0.1342,0.1259,0.1253,0.1245,0.1315,0.1314,0.1312,0.1311,0,0.0199,0.0236,0.0239,0.0289,0.035,0.0416,0.0523,0.0571,0.0738,0.0853,0.0958,0.1022,0.1083,0.1173,0.118,0.122,0.1368,0.1312,0.1324,0.1366,0.1311,0.1233,0.1231,0.1295,0.1297,0.1299,0.13,0,0.014,0.0144,0.0184,0.0223,0.0284,0.0341,0.0412,0.0516,0.0609,0.0806,0.0834,0.0956,0.1082,0.1084,0.1103,0.1106,0.1119,0.1111,0.1134,0.1153,0.1095,0.0999,0.0866,0,0,0,0,0,0.0102,0.0107,0.0121,0.0171,0.0212,0.0263,0.0388,0.0467,0.0619,0.0664,0.0762,0.0825,0.0884,0.0942,0.0912,0.0991,0.1095,0.0948,0.109,0.1203,0.1222,0.1172,0,0,0,0,0,0,0.0074,0.0099,0.0106,0.0113,0.0128,0.0189,0.0267,0.0371,0.0428,0.0581,0.0624,0.0738,0.0806,0.088,0.0882,0.0894,0.096,0.102,0.1017,0.1193,0.121,0.1225,0.118,0,0,0,0,0]},{"header":{"parameterUnit":"m.s-1","parameterCategory":2,"la1":30.2991,"la2":30.254,"lo1":-89.0895,"lo2":-89.0444,"dy":0.0017,"dx":0.0017,"nx":28,"ny":28,"refTime":"2024-04-16T03:00:00:Z","depth":"4","parameterNumber":3,"parameterNumberName":"V-component_of_CURRENTS"},"data":[0,0,0,0,0,0,0,0,0,0,0,0,0,0,0,0,0,0,0,0,0,0,0,0,0,0,0,0,0,0,0,0,0,0,0,0,0,0,0,0,0,0,0,0,0,0,0,0,0,0,0,0,0,0,0,0,0,0,0.0109,0.0109,0,0.016,0.0161,0.0162,0.0168,0.0167,0.0166,0.0165,0.0245,0.0248,0.0251,0,0,0,0,0,0,0,0,0,0,0,0,0,0.0084,0.0085,0.0109,0.0109,0.011,0.016,0.0161,0.0162,0.0168,0.0167,0.0166,0.0165,0.0244,0.0248,0.0251,0,0,0,0,0,0,0,0,0,0,0,0,0,0.0113,0.0085,0.0109,0.0117,0.0118,0.016,0.0161,0.0162,0.0168,0.0167,0.0166,0.0165,0.0243,0.0247,0.0251,0.03,0,0,0.0264,0.0266,0,0,0,0,0,0,0,0,0.0112,0.0115,0.0115,0.0116,0.0118,0.0154,0.0182,0.0209,0.0168,0.0152,0.0165,0.0164,0.0217,0.0223,0.0238,0.0303,0.0307,0.0265,0.0267,0.0269,0.027,0,0,0,0,0,0,0,0.011,0.0113,0.0132,0.0116,0.0117,0.0141,0.0144,0.0187,0.0192,0.0153,0.0153,0.0155,0.0218,0.0234,0.024,0.0308,0.0265,0.0268,0.0271,0.0273,0.035,0.035,0,0,0,0,0,0,0.0096,0.0111,0.013,0.0133,0.0109,0.0142,0.0145,0.0146,0.0191,0.0196,0.0156,0.0155,0.0227,0.0235,0.0243,0.0281,0.0269,0.0273,0.0275,0.0351,0.035,0.035,0,0,0,0,0,0,0.0095,0.0097,0.0128,0.0121,0.0126,0.0143,0.0144,0.0147,0.0157,0.0193,0.0198,0.0161,0.0227,0.0237,0.0299,0.0285,0.0275,0.0279,0.0351,0.0351,0.035,0.0372,0,0,0,0,0,0,0.0094,0.0097,0.0097,0.012,0.0126,0.0153,0.0145,0.0149,0.0159,0.0158,0.0199,0.0206,0.0227,0.0293,0.0304,0.0291,0.0282,0.0352,0.0351,0.035,0.0372,0.0372,0.0372,0,0,0,0,0,0.0093,0.0095,0.0097,0.01,0.0125,0.0153,0.016,0.0169,0.016,0.0172,0.0211,0.0204,0.0292,0.0299,0.031,0.0298,0.0352,0.0351,0.035,0.0372,0.0372,0.0372,0,0,0,0,0,0,0.0084,0.0096,0.0099,0.0103,0.0127,0.0153,0.0163,0.0169,0.0208,0.0213,0.0237,0.0248,0.0284,0.0293,0.0298,0.0311,0.0305,0.0307,0.0317,0.0318,0.0318,0.0283,0.0285,0,0,0,0,0,0.0082,0.0087,0.0106,0.0113,0.0122,0.0143,0.0155,0.0168,0.0201,0.0216,0.0245,0.0268,0.029,0.0308,0.0334,0.0371,0.0348,0.0355,0.0355,0.0355,0.0332,0.0307,0.0303,0.0346,0.0346,0.0346,0,0,0.0079,0.0088,0.009,0.0111,0.0129,0.0163,0.0148,0.0173,0.0204,0.0222,0.0275,0.0283,0.03,0.0333,0.0345,0.0341,0.0333,0.0354,0.0355,0.033,0.0306,0.0301,0.0298,0.0346,0.0346,0.0346,0,0,0.0087,0.0085,0.0098,0.0119,0.0148,0.0174,0.0178,0.0212,0.0224,0.0282,0.0284,0.0284,0.0345,0.0336,0.0342,0.0357,0.0338,0.0355,0.0335,0.0313,0.0309,0.0305,0.0283,0.0277,0.0353,0.0353,0.0353,0,0.0084,0.0109,0.0108,0.0134,0.0159,0.0178,0.0215,0.0238,0.0291,0.0296,0.03,0.0327,0.0335,0.0342,0.0331,0.0354,0.0344,0.0341,0.0313,0.0309,0.0305,0.0283,0.0276,0.0354,0.0354,0.0354,0.0354,0,0.011,0.0136,0.0147,0.019,0.0214,0.0252,0.0283,0.0308,0.0324,0.0335,0.0344,0.0353,0.0354,0.0343,0.0345,0.0309,0.0313,0.0322,0.0315,0.0302,0.0279,0.0272,0.0355,0.0355,0.0355,0.0355,0,0,0.0098,0.0156,0.0162,0.0204,0.0252,0.0285,0.032,0.0358,0.0371,0.0388,0.0388,0.038,0.0351,0.0349,0.0336,0.0295,0.025,0.0288,0.0287,0.027,0.0204,0.0214,0.0207,0.0267,0.0265,0.0264,0.0205,0,0.013,0.0201,0.0212,0.0295,0.0345,0.0361,0.0397,0.0422,0.0427,0.0434,0.0395,0.0405,0.0368,0.0364,0.0313,0.0271,0.0229,0.0265,0.0214,0.0212,0.0226,0.0198,0.0259,0.0199,0.0197,0.0196,0.0195,0,0.0163,0.0213,0.0296,0.0371,0.0388,0.0437,0.0482,0.0515,0.0503,0.0497,0.0463,0.0436,0.0376,0.0352,0.0252,0.0283,0.023,0.0189,0.0187,0.0176,0.0207,0.021,0.0181,0.0182,0.0183,0.0184,0.0185,0,0.0199,0.0275,0.0353,0.038,0.0459,0.049,0.0533,0.0537,0.056,0.0538,0.0529,0.0463,0.0442,0.0355,0.0254,0.0258,0.0144,0.0152,0.0109,0.011,0.0111,0.0115,0.0069,0.0069,0.0069,0.0069,0.007,0,0.0252,0.0316,0.0384,0.0437,0.0521,0.0546,0.0619,0.0624,0.0627,0.0635,0.0571,0.0545,0.0439,0.036,0.0263,0.0161,0.0158,0.0083,0.0088,0.0124,0.013,0.0106,0.0111,0.0067,0.0068,0.0068,0.0068,0,0.0302,0.0345,0.0437,0.0519,0.0554,0.0616,0.0703,0.0731,0.0725,0.0723,0.0718,0.0621,0.0514,0.0402,0.0265,0.0191,0.0087,0.0055,0.0097,0.0109,0.0063,0.007,-0.0007,-0.0008,-0.0008,-0.0008,-0.0008,0,0.0341,0.0399,0.0501,0.0548,0.0598,0.0697,0.0753,0.0791,0.0801,0.0757,0.0737,0.0648,0.0568,0.0384,0.0265,0.0105,0.0082,0.0032,0.0025,0.0039,0.0051,0.0058,0.0065,-0.0009,-0.0009,-0.0009,-0.0009,0,0.0413,0.0443,0.0501,0.0598,0.0674,0.0772,0.0844,0.0847,0.0851,0.0851,0.0752,0.0643,0.0526,0.0379,0.0269,0.0147,0.0063,0.0029,0.0028,0.0021,0.0036,0.005,0.0058,-0.001,-0.001,-0.001,-0.001,0,0.0436,0.0476,0.054,0.0621,0.0715,0.0787,0.084,0.0848,0.0869,0.0791,0.0763,0.0627,0.0566,0.04,0.0287,0.0183,0.0146,0.0103,0.0098,0.0098,0.0145,0.0182,0.0166,0,0,0,0,0,0.0447,0.0484,0.0561,0.0629,0.072,0.0788,0.0859,0.0886,0.0872,0.0807,0.0786,0.067,0.0491,0.0412,0.0308,0.0273,0.0127,0.0147,0.0074,-0.0015,-0.0014,0.0025,0,0,0,0,0,0,0.0449,0.051,0.0549,0.063,0.0673,0.078,0.0826,0.0824,0.079,0.0755,0.0668,0.0637,0.0474,0.0548,0.0301,0.027,0.0207,0.0075,0.0073,-0.0015,-0.0014,-0.0014,0.0026,0,0,0,0,0]}]]